Theta_e
310 309 309 309 309 309 309 310 309 308 309 308 308 308 308 308 311 308 308 307 308 309 310 313 313 314 313 313 313 311 317 318 317 316 315 306 306 298 297 298 295 295 296 293 291
309 308 308 308 308 308 309 309 309 308 308 308 308 309 309 309 311 307 305 305 306 309 310 313 314 314 314 314 313 315 316 316 313 312 312 307 307 300 299 297 295 293 291 290 290
308 308 307 307 308 308 308 309 309 308 308 308 308 309 308 308 310 304 305 304 305 309 311 313 313 313 315 313 311 312 316 311 308 307 308 306 303 300 303 302 298 295 291 289 289
310 310 308 307 307 307 307 308 309 309 309 309 309 309 307 308 312 303 304 304 304 305 310 312 313 314 315 314 309 313 307 309 306 304 305 306 302 301 302 298 297 295 291 289 288
315 314 311 309 308 307 306 307 308 308 308 308 308 308 306 306 305 303 303 304 304 304 305 311 312 313 314 311 309 311 306 304 302 301 301 300 301 301 297 293 293 291 289 289 288
317 316 316 314 312 309 306 306 307 308 307 307 308 308 308 307 304 302 302 303 303 303 304 306 310 311 309 307 309 306 305 303 302 301 300 302 299 297 294 292 291 290 289 288 287
319 318 318 316 314 311 308 306 306 306 306 306 306 307 307 304 302 302 302 302 302 302 303 308 310 310 307 307 304 305 306 304 303 302 302 300 300 300 295 291 290 289 288 287 286
319 319 319 318 314 312 309 307 307 306 306 306 306 306 305 302 301 299 300 301 301 302 304 307 307 307 306 304 305 308 307 310 302 302 300 301 309 299 293 292 291 290 288 287 286
320 319 319 319 317 311 310 309 308 306 305 305 305 305 305 302 301 300 300 300 301 301 301 303 303 304 304 309 309 308 311 310 305 298 301 302 307 296 293 292 293 291 289 288 287
321 320 320 319 317 314 310 311 309 307 305 305 304 304 301 300 300 300 299 299 300 300 300 300 300 305 305 308 311 313 307 305 308 299 297 303 303 297 292 292 293 291 290 288 287
321 321 321 320 318 313 312 310 308 307 307 304 300 300 300 299 300 298 299 299 299 300 304 298 303 305 306 305 299 301 303 304 300 294 295 299 300 300 295 292 293 292 289 288 287
321 320 320 320 318 316 309 307 306 307 305 302 301 299 298 298 298 297 298 298 299 303 298 301 304 297 294 294 296 297 298 300 296 293 293 297 297 297 297 294 292 292 290 289 287
321 321 321 320 319 316 307 305 305 306 305 302 300 298 298 298 296 296 296 296 298 299 298 303 297 294 295 294 295 296 297 297 296 294 294 293 299 297 294 294 292 291 290 288 287
321 322 321 320 319 316 306 305 304 305 312 309 302 299 297 297 298 296 295 296 297 299 296 298 293 294 294 295 295 297 293 293 293 295 300 293 305 297 293 290 289 289 289 287 287
322 321 321 321 320 314 307 305 304 307 329 305 302 299 298 297 296 296 294 294 298 297 297 302 294 294 295 295 293 295 292 292 292 293 292 294 297 302 289 292 290 289 287 287 286
321 322 321 321 321 318 306 305 306 318 328 309 301 300 300 296 296 295 294 294 293 295 294 294 290 292 294 291 292 291 292 292 292 293 301 300 298 308 297 295 291 288 287 286 286
320 320 320 321 321 319 304 308 317 323 309 310 305 300 299 300 298 296 296 296 299 303 301 294 293 291 291 292 291 291 293 305 309 303 309 292 293 304 295 289 289 288 287 286 285
318 318 319 319 320 318 304 310 321 317 312 301 300 299 303 297 297 296 297 300 292 294 298 303 307 292 291 292 294 292 294 306 313 314 310 291 300 306 288 283 282 282 286 286 286
318 319 318 319 319 315 306 320 321 316 305 304 304 306 305 298 297 297 298 300 296 293 305 299 300 290 290 290 291 293 293 291 296 290 296 304 299 295 287 287 285 285 284 287 287
316 317 317 317 314 301 308 318 317 305 300 300 312 309 311 304 303 302 304 300 296 292 291 296 304 291 290 290 289 290 291 294 294 307 308 308 302 308 289 289 288 286 286 287 287
314 316 316 315 303 303 315 316 310 301 299 303 305 307 308 308 303 304 307 299 294 291 291 292 296 295 290 291 294 289 291 290 292 295 305 310 313 295 292 291 289 287 286 286 286
311 314 313 313 306 304 308 306 303 300 297 298 296 300 308 303 299 298 303 303 292 291 293 293 293 300 296 289 288 290 292 292 298 301 292 291 300 285 285 289 288 287 286 285 285
311 312 312 310 313 312 309 304 299 298 298 297 298 297 297 299 302 299 297 292 291 292 292 292 296 301 299 290 288 289 290 290 288 290 296 298 304 284 282 285 286 287 286 285 284
307 311 309 305 302 305 308 307 304 299 297 296 296 294 294 295 296 301 302 292 290 291 292 293 297 302 311 309 294 292 290 289 290 296 297 297 298 289 287 288 287 285 285 284 283
306 308 309 310 309 304 304 304 306 306 297 295 299 295 299 301 299 301 300 296 291 292 294 294 295 295 294 294 291 291 292 292 290 292 294 297 297 297 293 289 288 286 285 284 282
305 306 305 306 305 303 305 306 307 307 304 302 300 305 298 300 305 308 303 297 299 292 293 292 296 291 293 293 292 293 293 292 292 292 293 293 294 294 286 286 285 284 283 282 282
304 305 304 305 304 303 305 305 305 305 305 305 301 302 300 300 301 300 299 296 296 293 293 291 292 292 298 289 290 295 294 292 292 292 291 291 293 288 284 285 285 283 282 282 281
Wind_Speed
18 17 15 15 15 15 14 12 9 4 1 2 5 10 12 11 6 8 5 8 7 6 3 1 1 2 2 2 2 2 4 5 5 7 6 13 7 5 4 10 5 3 6 12 14
18 18 16 15 16 16 16 14 10 5 3 5 5 9 13 11 7 4 8 7 8 6 2 1 2 3 1 2 2 2 4 4 2 1 5 15 11 13 9 12 5 10 12 13 12
17 17 15 14 15 16 15 13 11 8 6 5 6 10 14 9 5 5 8 5 5 4 1 1 2 3 2 2 4 2 1 4 2 1 10 11 9 6 8 8 8 15 17 14 11
19 18 16 14 14 14 14 12 9 7 7 6 7 9 10 6 3 8 7 4 3 2 1 1 2 1 1 2 2 2 3 1 5 5 5 8 11 6 9 1 7 18 16 14 11
22 21 19 16 13 12 12 11 8 7 8 7 8 10 8 2 3 7 6 4 4 2 1 2 2 3 2 4 2 3 5 4 5 6 7 9 4 4 8 9 16 18 15 14 11
25 24 22 20 17 15 13 12 9 9 9 9 8 8 6 4 5 6 4 3 3 1 0 3 4 5 7 4 2 4 8 8 3 5 6 5 5 4 11 16 17 16 15 12 11
25 25 24 23 21 16 12 13 13 11 9 9 7 7 6 4 3 7 5 2 2 2 3 6 9 2 6 6 9 11 5 4 6 6 4 5 6 10 18 21 19 17 16 14 12
24 24 25 25 22 17 15 15 14 13 12 9 6 4 3 3 2 6 3 0 3 4 6 8 9 9 4 12 4 3 3 4 7 8 5 6 4 8 21 24 22 19 18 16 13
23 23 24 25 23 18 20 19 16 11 10 9 5 3 3 4 3 6 2 3 4 5 7 9 7 6 8 6 4 6 6 9 4 9 5 11 6 8 20 22 21 22 21 19 16
26 27 27 26 22 22 21 20 11 7 4 6 4 2 3 3 5 3 3 2 2 4 3 2 2 3 4 7 6 7 6 6 8 7 10 11 19 10 21 24 26 25 24 22 19
24 27 29 30 27 22 22 14 7 4 8 2 5 6 4 7 3 3 4 3 3 2 4 2 6 9 9 5 2 1 5 10 3 4 5 18 20 17 24 27 26 26 24 22 20
25 26 26 28 25 26 21 10 8 8 6 6 5 6 6 7 3 4 4 0 1 3 1 2 7 4 7 3 1 2 6 9 1 3 4 13 20 20 20 28 30 28 27 25 21
24 25 27 29 23 27 19 15 10 11 5 1 2 3 4 7 4 8 7 2 3 2 1 6 2 5 1 4 4 4 7 4 5 5 10 11 13 10 9 19 23 26 26 24 23
22 22 25 25 20 26 15 17 11 12 4 3 2 1 1 3 1 3 3 2 2 1 0 2 4 3 2 3 5 5 1 1 1 5 5 3 10 6 9 12 14 23 25 26 23
23 24 25 23 25 21 20 15 10 5 5 2 1 3 2 2 1 1 2 1 4 4 4 1 6 6 5 1 4 2 2 1 1 4 6 8 6 1 3 11 15 21 27 25 23
24 24 25 25 26 21 18 14 9 3 7 3 2 1 3 1 1 3 1 1 4 3 1 1 1 2 1 4 3 9 2 1 1 2 5 5 7 3 6 4 3 20 25 26 23
27 27 25 25 25 21 14 11 3 5 3 1 0 1 2 2 1 2 1 2 3 2 4 3 4 3 3 4 4 4 2 3 4 3 5 3 6 9 4 5 2 15 25 26 27
27 26 23 23 21 16 8 3 5 1 2 0 2 2 4 1 3 2 2 4 3 2 2 4 6 8 8 3 2 8 3 4 7 7 5 3 9 4 3 2 4 5 18 23 26
26 26 25 26 19 9 1 3 5 4 0 4 2 4 3 2 4 2 5 4 3 11 8 4 4 3 2 1 2 6 8 2 2 2 5 6 6 5 5 5 6 7 15 23 24
25 26 23 14 8 7 3 7 6 5 5 3 5 2 4 1 3 2 2 3 3 3 3 2 7 3 3 2 3 5 4 3 2 4 7 7 8 8 7 12 10 10 16 21 19
23 11 12 10 5 4 6 7 4 3 4 5 2 5 9 5 6 5 4 2 3 4 2 2 3 4 3 11 8 5 5 5 1 4 4 6 4 1 2 14 15 15 18 23 20
12 4 7 8 3 2 3 5 4 6 6 2 2 6 12 5 7 6 9 8 11 16 8 4 2 7 10 3 2 3 5 11 7 7 5 4 8 2 0 6 16 18 17 16 15
10 11 15 13 5 6 5 6 5 5 6 7 5 8 3 6 6 8 5 2 10 10 8 8 5 5 5 2 0 6 11 8 2 3 16 7 7 1 3 8 14 17 17 14 12
7 4 5 8 7 4 7 4 4 4 5 2 4 4 2 3 5 5 3 2 4 3 6 10 7 12 13 9 4 6 11 16 13 8 12 21 19 7 7 11 15 16 17 14 12
6 6 4 3 5 5 4 1 3 2 6 6 4 9 7 5 3 6 7 5 6 10 7 6 8 16 23 20 14 20 20 19 22 29 14 29 18 14 10 15 20 19 16 13 13
7 6 4 5 5 4 4 7 13 10 4 4 5 8 11 8 10 12 6 7 8 12 12 7 5 3 9 16 17 21 22 23 29 29 29 31 35 19 4 10 13 15 15 15 13
15 21 19 8 5 4 6 12 14 5 11 22 9 4 9 18 22 24 15 7 5 10 16 9 5 3 8 2 8 17 24 25 18 19 24 20 24 8 6 11 13 15 15 13 10
Wind_Direction
19 16 13 12 12 9 7 7 4 352 250 285 341 360 355 349 336 352 352 353 348 351 346 348 89 129 124 95 99 149 223 224 196 185 139 160 158 153 150 139 137 155 138 141 157
22 18 14 12 10 8 5 2 5 3 325 299 293 343 346 348 336 345 357 353 344 346 0 104 143 164 109 76 19 255 241 197 82 133 164 170 181 157 156 150 126 127 131 143 149
23 21 17 14 12 9 7 6 4 1 341 317 301 326 330 328 321 335 346 348 350 348 36 132 143 136 114 51 18 22 286 140 54 125 154 155 153 166 168 198 186 174 157 150 147
21 17 15 10 6 5 4 6 4 5 356 336 317 325 335 330 294 341 341 333 350 359 21 191 184 155 117 155 63 143 92 147 130 112 137 160 144 150 194 3 168 159 155 151 148
17 11 8 5 359 357 359 356 346 347 349 333 318 324 337 312 262 331 334 332 342 337 284 204 182 147 144 106 93 89 130 80 104 111 108 135 158 167 165 136 139 147 152 154 150
17 13 7 1 355 346 341 341 328 312 314 315 310 316 311 277 299 331 336 343 336 338 268 193 178 141 106 77 12 99 111 117 139 137 147 179 176 186 179 159 153 157 159 160 160
18 15 12 5 353 344 335 331 324 310 310 315 306 311 296 241 292 340 351 333 6 98 117 135 135 130 125 116 125 140 129 161 182 177 172 171 204 221 173 170 167 169 169 168 170
14 11 6 1 355 346 337 324 313 293 285 305 295 301 244 239 255 350 316 262 101 128 124 139 141 129 103 119 105 211 220 223 158 181 169 196 258 152 172 175 180 180 179 179 179
9 7 5 0 355 353 338 328 315 294 277 280 272 249 219 238 282 327 282 216 182 146 145 151 157 113 139 175 178 201 259 226 191 200 172 214 268 158 182 189 190 190 189 187 187
3 1 359 359 358 354 348 337 331 315 306 297 252 199 226 240 277 299 308 248 224 184 130 154 93 171 178 193 240 190 221 223 236 180 215 215 250 174 193 198 202 198 195 193 193
359 359 356 355 350 356 355 347 348 310 327 252 298 290 302 306 255 325 317 214 177 175 222 46 222 223 232 239 341 257 248 248 182 146 245 240 249 246 204 210 209 204 200 197 196
354 356 358 357 354 352 358 20 7 314 306 298 304 301 301 329 318 330 353 142 267 231 307 201 241 66 96 98 218 237 263 260 170 173 246 280 264 251 219 219 212 204 203 201 193
349 350 352 353 354 349 355 3 345 341 275 296 318 332 323 339 355 339 10 41 63 194 280 259 62 130 115 153 188 229 245 256 286 306 241 289 270 235 226 221 217 212 208 202 197
338 341 343 350 352 344 340 341 333 339 282 171 172 202 265 325 227 343 7 66 86 317 312 297 133 185 195 250 208 246 119 147 309 326 279 314 295 173 189 215 217 212 205 199 195
328 332 338 345 342 336 330 329 327 331 320 95 178 270 284 242 320 238 11 111 175 167 169 172 179 188 227 269 197 1 76 56 266 261 312 184 240 105 164 237 215 208 206 200 193
320 324 330 331 334 330 325 326 319 258 246 164 184 234 279 190 216 316 299 56 123 147 176 97 103 227 75 111 97 136 147 169 175 238 246 174 226 228 193 219 195 198 200 196 193
320 319 321 323 323 322 318 319 282 237 33 59 255 340 308 277 196 25 352 236 242 256 203 171 187 139 176 147 139 192 207 270 241 205 266 144 221 266 192 199 181 192 194 193 196
317 318 321 318 311 316 310 274 254 245 288 3 269 275 269 315 205 208 209 252 205 71 328 278 260 180 169 260 242 190 245 238 256 276 311 171 240 246 103 159 201 191 188 189 194
318 319 316 315 298 281 211 251 283 278 303 323 280 259 244 224 295 300 226 248 188 190 194 216 233 130 176 187 233 155 214 13 319 176 269 244 250 203 154 177 193 179 176 186 194
318 319 310 293 278 214 188 229 228 179 147 122 264 249 282 235 266 262 261 145 171 202 307 212 281 188 136 187 209 243 138 156 205 263 255 237 268 250 188 194 189 180 182 184 191
327 312 293 282 223 193 250 245 276 226 187 166 193 247 254 258 232 219 256 166 122 137 248 200 249 131 157 207 196 177 218 217 294 228 249 288 236 89 214 187 184 188 184 182 194
316 264 271 264 196 255 215 214 199 182 186 184 231 246 253 227 232 232 234 213 160 151 166 196 279 265 246 127 340 261 252 203 226 214 245 330 268 16 74 183 181 186 187 192 210
298 270 277 231 245 219 255 287 291 207 200 168 221 232 245 232 250 217 225 66 170 174 160 161 204 283 211 191 118 224 209 227 295 3 236 237 256 102 186 172 189 188 191 194 204
298 290 237 208 236 263 289 250 241 351 6 336 255 244 248 285 271 284 272 15 210 231 133 146 211 220 255 287 132 213 209 211 211 240 245 234 258 197 194 183 188 194 197 205 215
245 242 247 254 245 218 183 219 264 273 209 216 236 241 185 231 239 235 258 199 190 206 213 215 244 236 251 264 255 250 245 220 211 228 231 259 249 266 238 204 199 201 203 212 211
259 267 281 264 251 225 245 212 262 279 212 205 241 260 202 218 227 275 229 200 217 184 193 209 252 240 271 248 252 264 254 239 234 236 240 253 268 274 139 175 186 195 202 201 211
265 256 253 245 218 224 227 263 266 245 240 255 223 214 209 235 263 272 258 240 214 181 194 177 218 200 273 68 285 275 245 231 234 234 222 237 249 190 174 198 197 184 192 202 219